| time (UTC) | temp F | wind direction | speed MPH | gust MPH | rain 1hr in | rain 24hr in | rain mn in | humidity % | barometer mb |
| 20260901021604 | 61 | 209 | 0.0 | 0.0 | 0.00 | 0.00 | 0.06 | 75 | 1011.2 |
| 20260901020011 | 62 | 209 | 0.0 | 0.0 | 0.00 | 0.00 | 0.06 | 73 | 1011.6 |
| 20260901014634 | 62 | 209 | 1.0 | 0.0 | 0.00 | 0.00 | 0.06 | 73 | 1011.7 |
| 20260901013117 | 62 | 202 | 0.0 | 0.0 | 0.00 | 0.00 | 0.06 | 72 | 1011.5 |
| 20260901011518 | 62 | 202 | 2.0 | 0.0 | 0.00 | 0.00 | 0.06 | 71 | 1012.1 |
| 20260901010132 | 62 | 186 | 1.0 | 0.0 | 0.00 | 0.00 | 0.06 | 73 | 1012.5 |
| 20260901004617 | 62 | 187 | 2.0 | 0.0 | 0.00 | 0.00 | 0.06 | 73 | 1012.5 |
| 20260901003032 | 62 | 209 | 2.0 | 0.0 | 0.00 | 0.00 | 0.05 | 74 | 1012.5 |
| 20260901001504 | 63 | 191 | 1.0 | 0.0 | 0.00 | 0.00 | 0.05 | 75 | 1012.2 |
| 20260901000108 | 62 | 207 | 3.0 | 0.0 | 0.00 | 0.00 | 0.05 | 73 | 1012.2 |
| 20260831234502 | 63 | 210 | 4.0 | 0.0 | 0.00 | 0.00 | 0.05 | 71 | 1012.1 |
| 20260831233115 | 67 | 200 | 5.0 | 0.0 | 0.00 | 0.00 | 0.03 | 63 | 1011.4 |
| 20260831231508 | 71 | 181 | 10.0 | 0.0 | 0.00 | 0.00 | 0.00 | 47 | 1010.0 |
| 20260831230115 | 77 | 258 | 3.0 | 0.0 | 0.00 | 0.00 | 0.00 | 42 | 1008.6 |
| 20260831224510 | 79 | 194 | 1.0 | 0.0 | 0.00 | 0.00 | 0.00 | 46 | 1007.4 |
| 20260831223134 | 80 | 194 | 1.0 | 0.0 | 0.00 | 0.00 | 0.00 | 39 | 1007.1 |
| 20260831221537 | 81 | 194 | 2.0 | 0.0 | 0.00 | 0.00 | 0.00 | 33 | 1007.0 |
| 20260831220025 | 82 | 153 | 2.0 | 0.0 | 0.00 | 0.00 | 0.00 | 33 | 1006.9 |
| 20260831214502 | 83 | 129 | 3.0 | 0.0 | 0.00 | 0.00 | 0.00 | 33 | 1007.0 |
| 20260831213055 | 83 | 209 | 4.0 | 0.0 | 0.00 | 0.00 | 0.00 | 32 | 1007.4 |
| 20260831211524 | 84 | 202 | 3.0 | 0.0 | 0.00 | 0.00 | 0.00 | 32 | 1007.3 |
| 20260831210136 | 84 | 201 | 3.0 | 0.0 | 0.00 | 0.00 | 0.00 | 34 | 1007.5 |
| 20260831204610 | 83 | 201 | 4.0 | 0.0 | 0.00 | 0.00 | 0.00 | 32 | 1008.0 |
| 20260831203110 | 84 | 200 | 3.0 | 0.0 | 0.00 | 0.00 | 0.00 | 31 | 1008.0 |
| 20260831201521 | 84 | 186 | 2.0 | 0.0 | 0.00 | 0.00 | 0.00 | 31 | 1008.1 |
| 20260831200129 | 83 | 210 | 2.0 | 0.0 | 0.00 | 0.00 | 0.00 | 35 | 1008.3 |
| 20260831194639 | 82 | 233 | 1.0 | 0.0 | 0.00 | 0.00 | 0.00 | 38 | 1008.3 |
| 20260831193034 | 81 | 234 | 1.0 | 0.0 | 0.00 | 0.00 | 0.00 | 40 | 1009.0 |
| 20260831191509 | 80 | 234 | 0.0 | 0.0 | 0.00 | 0.00 | 0.00 | 43 | 1009.3 |
| 20260831190130 | 79 | 233 | 0.0 | 0.0 | 0.00 | 0.00 | 0.00 | 47 | 1009.5 |
| 20260831184539 | 79 | 233 | 1.0 | 0.0 | 0.00 | 0.00 | 0.00 | 41 | 1009.7 |
| 20260831183017 | 80 | 234 | 0.0 | 0.0 | 0.00 | 0.00 | 0.00 | 40 | 1010.1 |
| 20260831181619 | 78 | 233 | 0.0 | 0.0 | 0.00 | 0.00 | 0.00 | 41 | 1010.4 |
| 20260831180014 | 77 | 233 | 0.0 | 0.0 | 0.00 | 0.00 | 0.00 | 41 | 1010.6 |
| 20260831174648 | 76 | 234 | 1.0 | 0.0 | 0.00 | 0.00 | 0.00 | 40 | 1010.9 |
| 20260831173057 | 75 | 234 | 0.0 | 0.0 | 0.00 | 0.00 | 0.00 | 42 | 1011.0 |
| 20260831171508 | 73 | 233 | 1.0 | 0.0 | 0.00 | 0.00 | 0.00 | 44 | 1011.0 |
| 20260831170053 | 72 | 234 | 2.0 | 0.0 | 0.00 | 0.00 | 0.00 | 45 | 1011.2 |
| 20260831164518 | 72 | 234 | 1.0 | 0.0 | 0.00 | 0.00 | 0.00 | 45 | 1011.0 |
| 20260831163114 | 72 | 234 | 1.0 | 0.0 | 0.00 | 0.00 | 0.00 | 46 | 1010.9 |
| 20260831161540 | 71 | 350 | 1.0 | 0.0 | 0.00 | 0.00 | 0.00 | 47 | 1011.0 |
| 20260831160012 | 69 | 350 | 0.0 | 0.0 | 0.00 | 0.00 | 0.00 | 49 | 1011.0 |
| 20260831154509 | 68 | 351 | 0.0 | 0.0 | 0.00 | 0.00 | 0.00 | 52 | 1011.0 |
| 20260831151513 | 64 | 351 | 0.0 | 0.0 | 0.00 | 0.00 | 0.00 | 63 | 1011.3 |
| 20260831150048 | 61 | 351 | 0.0 | 0.0 | 0.00 | 0.00 | 0.00 | 67 | 1011.4 |
| 20260831144514 | 59 | 350 | 0.0 | 0.0 | 0.00 | 0.00 | 0.00 | 71 | 1011.4 |
| 20260831143129 | 59 | 350 | 0.0 | 0.0 | 0.00 | 0.00 | 0.00 | 73 | 1011.5 |
| 20260831141626 | 58 | 351 | 0.0 | 0.0 | 0.00 | 0.00 | 0.00 | 72 | 1011.4 |
| 20260831140111 | 57 | 351 | 0.0 | 0.0 | 0.00 | 0.00 | 0.00 | 70 | 1011.3 |
| 20260831134520 | 56 | 351 | 0.0 | 0.0 | 0.00 | 0.00 | 0.00 | 69 | 1011.0 |
| 20260831133003 | 56 | 350 | 0.0 | 0.0 | 0.00 | 0.00 | 0.00 | 68 | 1010.9 |
| 20260831131618 | 56 | 351 | 0.0 | 0.0 | 0.00 | 0.00 | 0.00 | 66 | 1010.8 |
| 20260831130114 | 57 | 351 | 0.0 | 0.0 | 0.00 | 0.00 | 0.00 | 67 | 1010.7 |
| 20260831124551 | 56 | 351 | 0.0 | 0.0 | 0.00 | 0.00 | 0.00 | 67 | 1010.6 |
| 20260831123028 | 56 | 351 | 0.0 | 0.0 | 0.00 | 0.00 | 0.00 | 69 | 1010.5 |
| 20260831121633 | 56 | 350 | 0.0 | 0.0 | 0.00 | 0.00 | 0.00 | 72 | 1010.7 |
| 20260831120044 | 56 | 350 | 0.0 | 0.0 | 0.00 | 0.00 | 0.00 | 75 | 1010.7 |
| 20260831114508 | 57 | 351 | 0.0 | 0.0 | 0.00 | 0.00 | 0.00 | 77 | 1010.9 |
| 20260831113109 | 57 | 351 | 0.0 | 0.0 | 0.00 | 0.00 | 0.00 | 76 | 1010.9 |
| 20260831111542 | 57 | 350 | 0.0 | 0.0 | 0.00 | 0.00 | 0.00 | 75 | 1010.9 |
| 20260831110018 | 58 | 351 | 0.0 | 0.0 | 0.00 | 0.00 | 0.00 | 73 | 1010.6 |
| 20260831104604 | 58 | 350 | 0.0 | 0.0 | 0.00 | 0.00 | 0.00 | 72 | 1010.7 |
| 20260831103012 | 58 | 351 | 0.0 | 0.0 | 0.00 | 0.00 | 0.00 | 70 | 1010.7 |
| 20260831101625 | 57 | 351 | 0.0 | 0.0 | 0.00 | 0.00 | 0.00 | 66 | 1010.5 |
| 20260831100035 | 57 | 351 | 0.0 | 0.0 | 0.00 | 0.00 | 0.00 | 65 | 1010.3 |
| 20260831094505 | 57 | 351 | 0.0 | 0.0 | 0.00 | 0.00 | 0.00 | 66 | 1010.0 |
| 20260831093040 | 57 | 351 | 0.0 | 0.0 | 0.00 | 0.00 | 0.00 | 68 | 1009.9 |
| 20260831091518 | 58 | 351 | 0.0 | 0.0 | 0.00 | 0.00 | 0.00 | 69 | 1009.7 |
| 20260831090126 | 58 | 351 | 0.0 | 0.0 | 0.00 | 0.00 | 0.00 | 70 | 1009.6 |
| 20260831084633 | 58 | 351 | 0.0 | 0.0 | 0.00 | 0.00 | 0.00 | 71 | 1009.7 |
| 20260831083017 | 59 | 351 | 0.0 | 0.0 | 0.00 | 0.00 | 0.00 | 71 | 1009.7 |
| 20260831081507 | 59 | 351 | 0.0 | 0.0 | 0.00 | 0.00 | 0.00 | 72 | 1009.8 |
| 20260831080125 | 59 | 350 | 0.0 | 0.0 | 0.00 | 0.00 | 0.00 | 70 | 1009.9 |
| 20260831074535 | 59 | 350 | 0.0 | 0.0 | 0.00 | 0.00 | 0.00 | 70 | 1009.9 |
| 20260831073014 | 59 | 350 | 0.0 | 0.0 | 0.00 | 0.00 | 0.00 | 70 | 1010.0 |
| 20260831071624 | 59 | 351 | 0.0 | 0.0 | 0.00 | 0.00 | 0.00 | 71 | 1010.1 |
| 20260831070050 | 59 | 351 | 0.0 | 0.0 | 0.00 | 0.00 | 0.17 | 71 | 1010.1 |
| 20260831064517 | 60 | 351 | 0.0 | 0.0 | 0.00 | 0.00 | 0.17 | 72 | 1010.1 |
| 20260831063130 | 60 | 351 | 0.0 | 0.0 | 0.00 | 0.00 | 0.17 | 72 | 1010.0 |
| 20260831061521 | 60 | 351 | 0.0 | 0.0 | 0.00 | 0.00 | 0.17 | 71 | 1010.0 |
| 20260831060011 | 61 | 350 | 0.0 | 0.0 | 0.00 | 0.00 | 0.17 | 72 | 1010.0 |
| 20260831054631 | 62 | 351 | 0.0 | 0.0 | 0.00 | 0.00 | 0.17 | 72 | 1010.0 |
| 20260831053058 | 62 | 350 | 0.0 | 0.0 | 0.00 | 0.00 | 0.17 | 71 | 1010.0 |
| 20260831051526 | 62 | 350 | 0.0 | 0.0 | 0.00 | 0.00 | 0.17 | 70 | 1010.0 |
| 20260831050003 | 62 | 350 | 0.0 | 0.0 | 0.00 | 0.00 | 0.17 | 69 | 1009.8 |
| 20260831044611 | 62 | 351 | 0.0 | 0.0 | 0.00 | 0.00 | 0.17 | 69 | 1009.7 |
| 20260831043017 | 63 | 351 | 0.0 | 0.0 | 0.00 | 0.00 | 0.17 | 69 | 1009.5 |
| 20260831041513 | 63 | 350 | 0.0 | 0.0 | 0.00 | 0.00 | 0.17 | 68 | 1009.6 |
| 20260831040135 | 64 | 351 | 0.0 | 0.0 | 0.00 | 0.00 | 0.17 | 67 | 1009.6 |
| 20260831034559 | 64 | 350 | 0.0 | 0.0 | 0.00 | 0.00 | 0.17 | 66 | 1009.6 |
| 20260831033008 | 65 | 351 | 0.0 | 0.0 | 0.00 | 0.00 | 0.17 | 65 | 1009.3 |
| 20260831031609 | 65 | 351 | 0.0 | 0.0 | 0.00 | 0.00 | 0.17 | 64 | 1009.1 |
| 20260831030027 | 66 | 351 | 0.0 | 0.0 | 0.00 | 0.00 | 0.17 | 63 | 1009.0 |
| 20260831024508 | 67 | 350 | 0.0 | 0.0 | 0.00 | 0.00 | 0.17 | 62 | 1008.8 |
| 20260831023111 | 69 | 351 | 0.0 | 0.0 | 0.00 | 0.00 | 0.17 | 61 | 1008.7 |